{"data":{"norad_id":59760,"intl_designator":"2024-091H","name":"STARLINK-11098 [DTC]","alt_names":[],"object_type":"PAYLOAD","status":"ACTIVE","operator":null,"country":"US","launch_date":"2024-05-14","launch_site_code":"AFWTR","launch_vehicle":null,"mission":null,"orbit_class":"UNKNOWN","rcs_meters":null,"size_class":null,"mass_kg":null,"dimensions":null,"purposes":["comms"],"wikipedia_slug":null,"has_3d_model":false,"image_url":null,"decayed_at":null,"tle_current":{"epoch":"2026-05-25T03:40:02.733024Z","epoch_age_seconds":72274,"freshness":"FRESH","line1":"1 59760U 24091H   26145.15280941  .00001132  00000+0  14186-4 0  9991","line2":"2 59760  53.1581 189.2592 0001029  71.7449 288.3681 15.69727974117521","mean_motion":15.69727974,"eccentricity":0.0001029,"inclination_deg":53.1581,"raan_deg":189.2592,"arg_perigee_deg":71.7449,"mean_anomaly_deg":288.3681,"bstar":1.4186e-5,"rev_number":11752,"period_min":91.735639795638,"perigee_km":358.98199531532,"apogee_km":360.36863708999,"semimajor_km":6737.8123162027,"source":"CELESTRAK","updated_at":"2026-05-25T13:38:19.057002Z"}}}